Tracking 25656 objects as of 21-May-2022
HD Live streaming from Space Station
objects crossing your sky now

COSMOS 2251 DEB

Track COSMOS 2251 DEB now!
10-day predictions


NORAD ID: 35292
Int'l Code: 1993-036AJW
Perigee: 477.9 km
Apogee: 513.1 km
Inclination: 74.0 °
Period: 94.4 minutes
Semi major axis: 6866 km
RCS: 0.0092 m2 (small)
Launch date: June 16, 1993
Source: Commonwealth of Independent States (former USSR) (CIS)
Launch site: PLESETSK MISSILE AND SPACE COMPLEX (PKMTR)

Note: This is SATELLITE DEBRIS
aabbcc
Your satellite tracking list
Your tracking list is empty




NASA's NSSDC Master Catalog

Two Line Element Set (TLE):
1 35292U 93036AJW 22140.94023495  .00169282  00000-0  64116-2 0  9995
2 35292  73.9794 218.5201 0025648 309.3477  50.5450 15.25820409480152
Source of the keplerian elements: AFSPC